Volver al catálogo

FENGYUN 1C DEB

ActivoSSO
NORAD 31017·DEBRIS·🇨🇳 China

Lanzado May 10, 1999 desde Taiyuan Satellite Launch Center

Loading…

Próximos Pases (próximas 24 horas)

TLE

ActualizadoSource: Space-Track

Época: Sep 14, 2026, 04:23 UTC

1 31017U 99025BDK 26257.18274485  .00000401  00000-0  24201-3 0  9995
2 31017  98.7062 238.6826 0111655 290.1998 129.6159 14.09131329  1746

Sigue FENGYUN 1C DEB en tiempo real con AllMySat

Download on the App Store